TimeCDT,TemperatureF,Dew PointF,Humidity,Sea Level PressureIn,VisibilityMPH,Wind Direction,Wind SpeedMPH,Gust SpeedMPH,PrecipitationIn,Events,Conditions,WindDirDegrees,DateUTC
12:52 AM,59.0,57.0,93,29.78,10.0,South,6.9,-,N/A,,Clear,190,2013-05-22 05:52:00
1:52 AM,57.9,55.9,93,29.78,10.0,SSW,4.6,-,N/A,,Clear,200,2013-05-22 06:52:00
2:52 AM,57.0,55.0,93,29.77,10.0,South,4.6,-,N/A,,Partly Cloudy,190,2013-05-22 07:52:00
3:52 AM,55.9,55.0,97,29.78,10.0,Calm,Calm,-,N/A,,Partly Cloudy,0,2013-05-22 08:52:00
4:52 AM,57.0,54.0,89,29.80,10.0,Calm,Calm,-,N/A,,Clear,0,2013-05-22 09:52:00
5:52 AM,55.9,54.0,93,29.80,10.0,West,3.5,-,N/A,,Clear,280,2013-05-22 10:52:00
6:52 AM,55.0,54.0,96,29.82,10.0,Calm,Calm,-,N/A,,Clear,0,2013-05-22 11:52:00
7:52 AM,60.1,54.0,80,29.84,10.0,WNW,6.9,-,N/A,,Clear,290,2013-05-22 12:52:00
8:52 AM,63.0,54.0,72,29.86,10.0,NW,8.1,-,N/A,,Clear,320,2013-05-22 13:52:00
9:52 AM,64.9,54.0,68,29.87,10.0,WNW,10.4,16.1,N/A,,Clear,290,2013-05-22 14:52:00
10:52 AM,66.9,53.1,61,29.87,10.0,West,12.7,-,N/A,,Clear,270,2013-05-22 15:52:00
11:52 AM,69.1,54.0,58,29.88,10.0,West,9.2,17.3,N/A,,Clear,280,2013-05-22 16:52:00
12:52 PM,70.0,53.1,55,29.89,10.0,WNW,6.9,17.3,N/A,,Partly Cloudy,290,2013-05-22 17:52:00
1:52 PM,72.0,55.0,55,29.88,10.0,WNW,10.4,-,N/A,,Clear,290,2013-05-22 18:52:00
2:52 PM,73.9,57.0,55,29.88,10.0,WNW,11.5,-,N/A,,Clear,290,2013-05-22 19:52:00
3:52 PM,75.0,55.9,51,29.86,10.0,WNW,8.1,-,N/A,,Clear,300,2013-05-22 20:52:00
4:52 PM,75.9,55.9,50,29.84,10.0,NW,8.1,-,N/A,,Clear,310,2013-05-22 21:52:00
5:52 PM,75.0,55.9,51,29.85,10.0,Calm,Calm,-,N/A,,Clear,0,2013-05-22 22:52:00
6:52 PM,75.0,57.0,53,29.86,10.0,Variable,3.5,-,N/A,,Clear,0,2013-05-22 23:52:00
7:52 PM,73.0,57.9,59,29.87,10.0,Calm,Calm,-,N/A,,Clear,0,2013-05-23 00:52:00
8:52 PM,69.1,60.1,73,29.90,10.0,Calm,Calm,-,N/A,,Clear,0,2013-05-23 01:52:00
9:52 PM,64.9,59.0,81,29.91,10.0,ENE,3.5,-,N/A,,Clear,70,2013-05-23 02:52:00
10:52 PM,63.0,60.1,90,29.93,10.0,NE,3.5,-,N/A,,Clear,40,2013-05-23 03:52:00
11:52 PM,61.0,57.9,90,29.94,10.0,Calm,Calm,-,N/A,,Clear,0,2013-05-23 04:52:00